Theta_e
275 275 275 275 275 274 275 274 275 275 274 275 274 274 273 274 272 268 269 271 271 272 274 273 274 275 275 275 276 275 275 277 278 276 275 275 274 278 283 285 286 286 288 288 287 288 288 288 289 289 290 290 290 291 292 292 292 293 293 294 295 296 297 297 298 299 299 299 300 301 301 301 302 302
275 275 274 275 275 274 274 274 274 274 274 273 274 273 274 274 271 272 270 270 272 272 274 273 273 275 274 275 275 275 275 278 277 276 275 274 274 280 281 282 283 285 287 287 287 288 288 288 288 288 289 289 290 291 291 291 291 292 293 294 294 295 296 296 297 296 297 298 299 300 300 301 301 301
274 273 273 273 274 274 273 273 273 274 274 274 274 273 274 274 273 272 271 267 271 272 271 273 274 273 273 274 274 275 274 276 277 275 274 274 278 279 278 279 281 283 284 284 286 287 288 288 288 288 288 289 289 290 290 290 290 291 291 292 293 294 294 294 294 294 295 296 297 298 299 300 300 301
274 273 272 273 273 273 273 273 273 273 273 274 274 273 274 273 273 273 272 270 270 273 273 272 273 273 273 274 273 273 274 275 277 274 274 275 278 275 274 278 280 281 282 284 286 286 287 288 287 287 287 288 288 289 289 290 290 290 290 291 292 292 292 292 292 293 293 294 295 296 296 297 298 299
273 272 272 272 272 273 272 273 273 273 272 272 274 273 273 273 272 272 271 269 269 271 273 273 272 273 273 272 273 272 273 273 273 275 274 274 274 274 274 274 277 280 281 283 284 285 286 287 287 287 287 287 287 288 288 289 289 289 290 290 290 291 291 292 292 292 292 292 293 294 295 296 297 297
273 272 271 272 272 272 272 271 271 272 271 272 271 272 272 271 271 272 271 270 269 268 271 271 272 272 273 271 273 272 272 272 273 273 273 274 274 274 274 274 275 279 281 283 284 285 286 286 287 287 286 287 288 288 288 288 288 288 289 289 288 289 289 290 290 290 290 292 293 293 294 295 296 296
271 271 271 271 271 272 271 271 271 271 271 271 271 270 271 270 271 271 271 270 268 268 269 271 270 271 271 271 271 272 273 273 273 272 273 273 274 275 275 275 275 279 281 283 284 285 285 285 286 286 286 286 286 287 287 287 287 287 287 288 288 287 287 288 288 289 289 291 292 292 293 294 295 295
271 270 270 270 270 270 270 270 270 270 270 271 271 270 271 271 270 271 271 271 270 268 267 269 270 271 271 271 272 273 273 273 273 273 273 274 274 275 275 275 275 277 282 283 283 284 284 284 285 285 285 286 286 286 287 287 287 286 286 286 286 286 286 287 287 287 288 290 291 291 292 293 293 294
270 270 270 270 270 269 268 269 269 269 269 270 269 269 270 270 271 271 271 270 270 269 267 268 270 271 271 272 272 273 272 273 273 274 273 274 274 274 275 276 277 280 282 282 282 282 283 284 284 285 285 285 286 286 286 286 286 285 285 284 284 285 286 286 287 287 288 288 288 289 291 292 292 292
270 270 270 270 270 269 269 269 269 268 268 269 268 268 269 270 270 270 270 270 270 270 269 269 269 270 270 271 272 273 273 272 272 272 274 274 275 275 275 276 277 278 277 277 277 279 281 282 283 284 284 285 285 286 285 285 285 284 283 283 284 284 285 286 287 287 287 287 288 288 289 290 291 291
270 270 270 270 270 270 269 269 269 268 268 269 269 269 269 269 269 269 269 270 271 271 270 270 270 270 272 273 271 273 274 273 273 272 272 273 275 276 275 275 276 277 277 279 281 281 281 282 281 282 284 284 284 284 284 284 283 283 283 283 284 284 285 286 286 286 287 287 287 287 288 288 290 290
270 270 270 270 270 270 270 270 269 269 269 270 269 270 269 269 269 269 269 269 269 269 270 270 270 271 271 272 273 274 273 272 273 274 273 272 273 274 275 276 275 276 277 276 277 279 280 280 281 282 282 282 282 282 282 282 282 281 282 283 284 285 285 285 286 286 286 286 286 287 287 287 288 289
270 270 270 270 270 272 274 276 275 274 275 270 267 268 269 269 268 267 266 267 268 269 270 270 272 272 272 272 272 272 272 272 272 274 274 273 274 274 274 275 277 277 276 276 277 277 277 276 275 275 275 276 278 278 280 280 280 281 283 284 284 284 285 285 285 285 286 286 286 286 287 287 287 287
270 270 270 271 275 276 277 277 278 278 277 277 274 270 269 268 268 265 264 265 268 270 270 271 272 271 271 272 272 272 273 274 274 273 273 272 273 274 273 273 275 276 276 274 272 273 274 274 273 274 274 275 277 276 276 276 279 281 283 284 284 284 284 285 285 285 285 285 286 286 286 286 286 287
270 270 270 270 273 274 276 274 277 277 277 277 277 277 277 276 270 265 266 269 272 271 271 273 272 271 270 271 272 272 273 273 273 272 273 272 272 271 269 268 271 275 273 271 270 271 273 273 272 273 274 275 275 276 276 281 282 282 283 283 283 284 284 284 284 284 284 285 285 285 285 286 286 286
270 270 270 270 270 270 270 269 269 273 276 276 276 276 277 277 278 278 274 273 273 273 272 272 271 271 271 272 272 272 272 272 273 273 272 271 270 269 268 268 267 271 273 271 270 270 273 274 273 273 274 275 276 276 279 281 281 282 283 283 283 283 283 284 284 284 284 284 284 285 285 285 286 286
270 269 269 269 270 270 274 273 270 269 269 274 275 276 276 277 278 278 279 279 277 276 273 271 271 272 272 271 271 273 273 274 272 271 270 270 270 269 268 268 269 270 272 271 270 269 272 274 274 274 275 276 276 276 277 280 281 282 282 282 282 283 283 283 283 283 284 284 284 284 285 285 285 285
270 270 269 269 269 269 269 270 270 270 268 268 269 269 270 271 274 277 278 278 278 277 274 273 272 273 273 271 273 274 275 272 270 270 269 269 268 268 267 269 269 271 273 271 270 269 271 273 273 272 274 275 274 273 276 280 281 281 282 282 282 282 283 283 283 283 283 284 284 284 284 284 284 285
270 270 270 269 269 269 268 269 270 268 268 266 267 267 269 271 273 273 274 275 274 275 275 274 273 273 274 274 275 274 274 272 272 271 270 269 268 268 269 269 270 271 273 272 270 266 269 272 271 271 272 272 272 273 277 279 280 280 281 281 282 282 282 282 283 283 283 283 284 284 284 284 284 284
271 271 271 270 269 268 268 271 275 274 270 268 266 268 270 272 274 275 276 277 278 276 275 275 274 274 275 277 275 274 273 272 271 271 269 268 267 267 266 265 268 268 271 271 268 267 268 270 268 269 271 272 272 273 273 277 279 280 280 281 281 282 282 282 282 282 283 283 283 283 283 283 284 284
271 270 270 270 269 268 268 272 275 277 277 272 271 271 272 273 273 272 274 277 277 277 277 277 277 278 277 276 276 275 274 273 272 268 265 264 266 264 263 264 264 265 267 268 269 268 265 268 269 269 271 271 271 271 272 273 277 279 280 280 281 281 281 282 282 282 282 282 283 283 283 283 283 283
270 270 272 271 269 269 269 273 276 277 276 274 274 274 273 272 271 272 274 273 274 276 276 276 275 274 273 273 272 271 272 272 272 265 263 265 265 263 263 261 263 264 265 267 270 266 266 268 269 267 269 269 270 271 272 273 274 277 278 279 280 280 281 281 282 282 282 282 282 282 283 283 283 280
269 269 271 273 273 271 271 275 276 277 277 274 274 274 273 272 271 272 273 271 269 270 270 269 268 266 267 266 265 266 270 271 270 268 266 265 263 262 262 263 263 262 263 267 270 265 266 266 267 266 264 264 267 271 271 272 272 273 273 274 274 278 280 281 281 281 281 281 282 282 282 283 282 279
268 268 268 271 276 277 277 276 277 278 279 276 275 275 273 272 272 273 271 271 271 270 269 267 266 264 264 264 265 265 265 266 267 267 267 266 265 263 263 263 263 262 263 267 270 266 266 266 265 267 266 263 262 267 270 270 272 272 273 273 273 277 278 278 278 280 280 281 281 282 282 282 282 279
266 266 268 268 273 277 278 279 278 279 279 279 277 275 274 274 274 275 271 270 271 266 265 263 261 260 260 261 262 263 264 265 265 266 267 267 266 265 263 263 263 263 265 268 272 267 264 265 265 266 266 266 266 266 268 269 271 272 273 273 273 274 274 275 276 275 278 279 280 281 281 282 283 281
266 267 267 268 271 275 277 278 279 280 280 280 278 276 278 278 278 275 268 266 264 263 261 259 259 257 258 258 259 261 262 263 264 265 265 266 266 266 266 265 264 263 263 267 271 267 265 264 265 264 265 264 265 266 265 267 269 271 272 273 273 273 275 274 274 274 274 274 275 277 279 282 282 282
267 267 267 269 272 275 276 278 279 279 280 279 278 279 278 278 278 273 265 265 262 261 259 258 258 258 257 257 259 260 261 263 264 265 265 265 266 266 267 267 267 266 266 267 268 267 266 264 266 265 264 265 264 265 265 264 266 269 269 270 271 272 273 273 272 272 273 274 275 279 280 281 281 282
268 268 268 269 274 275 276 278 278 279 279 278 279 279 278 277 276 266 264 262 261 259 258 257 257 258 258 257 258 260 262 263 264 265 265 265 265 266 266 266 266 267 267 267 267 267 266 264 265 266 266 265 264 263 262 266 266 267 266 269 270 270 271 272 272 272 273 275 275 276 276 276 277 277
269 271 273 274 275 276 277 278 278 278 279 279 279 279 277 275 266 263 262 261 259 257 257 257 257 258 259 260 261 263 264 264 264 263 263 264 264 264 264 264 265 265 266 266 266 266 266 266 265 266 266 266 264 264 264 264 265 266 267 267 266 269 270 272 273 273 274 275 275 276 275 276 276 278
275 275 275 276 276 276 276 275 275 274 274 277 277 276 275 265 262 261 260 258 256 257 257 257 258 259 259 260 261 263 263 261 260 260 260 261 261 261 261 262 262 260 262 264 265 266 266 266 266 266 265 265 265 264 264 264 264 265 266 266 267 270 271 273 274 274 274 273 274 274 275 276 276 277
276 275 275 275 276 276 277 277 276 275 274 273 273 269 265 261 258 258 257 257 258 257 256 257 258 259 259 259 259 259 259 259 259 261 261 260 260 261 261 261 260 261 262 261 264 266 266 266 266 266 264 264 264 264 264 264 263 264 265 267 268 267 270 272 271 271 272 272 273 274 275 276 276 277
276 275 276 277 275 275 274 274 272 270 269 268 266 264 261 259 259 262 264 265 259 259 258 258 257 257 257 256 257 258 258 258 259 260 259 259 260 261 260 259 259 260 261 262 262 263 266 266 266 266 265 264 263 263 264 264 263 264 265 268 269 270 270 269 269 270 272 273 273 273 274 275 276 277
275 274 273 273 273 272 270 269 268 266 263 263 262 261 258 256 255 255 255 256 258 258 255 256 256 257 255 257 256 256 256 257 258 260 259 259 259 260 258 259 259 259 259 260 262 263 263 264 265 266 265 265 265 265 263 262 263 265 266 267 268 267 268 270 270 270 272 272 272 273 273 275 276 277
273 272 271 271 271 271 270 268 267 266 265 264 262 259 263 260 256 256 257 256 258 256 256 256 255 256 255 256 256 256 257 257 257 259 263 260 259 257 258 258 258 259 260 260 260 261 262 263 263 264 265 265 265 265 264 263 264 265 267 267 267 267 269 270 271 271 272 272 272 272 273 273 275 277
273 271 270 270 270 270 270 269 269 268 266 265 263 263 260 259 260 261 258 257 256 256 257 256 255 255 254 256 256 256 257 257 258 258 257 257 258 257 258 258 258 259 259 259 260 261 261 261 262 262 263 263 261 259 268 268 264 266 267 266 267 267 267 270 271 271 272 272 273 272 271 271 273 276
271 271 270 269 269 269 268 268 268 268 267 266 264 263 261 261 259 259 259 260 258 257 256 255 256 255 255 255 255 256 257 258 258 257 258 256 258 258 257 257 258 259 259 259 260 261 261 261 261 261 260 260 260 260 259 268 270 267 265 265 266 267 268 270 271 271 271 272 272 270 269 269 272 274
270 270 270 269 269 268 268 268 268 267 266 265 264 263 263 263 262 261 260 262 259 256 257 255 256 255 255 255 256 257 257 256 256 257 257 258 257 257 257 258 259 259 259 260 259 260 260 260 261 261 260 259 259 258 260 263 267 271 267 266 266 268 269 269 269 269 271 271 269 269 270 271 272 274
271 270 269 269 269 269 268 268 267 266 265 264 264 263 262 262 262 261 260 259 259 257 258 258 256 256 255 255 254 254 254 255 256 257 258 257 257 258 258 258 258 259 259 260 260 259 259 259 260 261 260 259 258 258 259 262 263 265 270 269 267 268 269 268 267 268 268 269 269 270 272 271 272 274
272 271 271 270 269 269 268 267 266 265 265 264 262 262 262 261 261 260 258 258 258 257 256 255 255 255 255 253 255 255 255 254 254 255 256 256 257 257 258 258 258 259 260 259 259 258 257 257 259 260 260 260 259 260 261 261 261 264 268 272 269 267 267 268 267 268 267 268 269 271 272 274 276 279
273 272 272 271 270 269 268 267 266 265 264 263 263 262 262 261 260 259 258 258 257 256 255 255 256 256 255 255 255 254 253 253 255 255 256 256 257 258 258 259 259 260 259 258 258 258 258 258 259 260 261 262 262 263 264 264 265 266 266 268 272 270 268 269 268 267 267 268 269 269 270 272 272 273
272 271 270 269 268 268 267 266 265 264 264 263 262 263 262 261 260 259 258 258 257 256 255 255 254 253 254 254 253 252 253 254 254 255 256 256 258 259 259 260 259 259 258 258 258 258 258 259 262 266 264 262 263 265 264 262 260 261 263 265 269 271 272 272 269 268 267 268 269 269 270 269 270 271
270 270 271 268 267 267 266 265 264 263 263 262 262 261 261 260 259 261 260 260 259 257 256 255 254 254 254 253 253 254 253 254 254 255 256 254 255 257 258 259 258 258 258 257 258 258 260 261 262 261 261 262 263 261 260 260 260 261 263 264 264 269 270 271 271 271 270 269 269 269 268 269 270 269
267 268 268 267 266 266 265 264 264 263 262 262 261 261 260 259 258 259 259 258 258 257 256 256 255 253 253 252 252 252 252 253 253 254 254 254 255 256 257 257 257 258 258 258 259 259 260 260 260 260 261 261 262 261 260 260 261 262 262 262 262 264 265 269 269 271 272 273 273 272 271 269 268 266
266 265 265 265 264 264 264 263 263 262 262 262 261 260 259 259 258 258 258 258 257 257 256 256 254 253 253 253 251 250 251 253 252 253 254 255 257 257 257 257 258 258 258 258 258 258 258 258 259 260 260 260 261 260 260 261 260 261 261 261 262 261 261 263 264 267 268 270 271 273 273 274 274 273
263 263 263 262 262 262 262 262 261 261 261 260 259 259 258 258 258 258 257 257 256 256 255 255 254 253 252 252 250 252 252 256 255 254 254 255 254 255 256 257 258 258 258 258 257 257 258 258 260 261 260 260 260 260 261 260 260 260 259 259 259 260 260 261 261 261 262 263 268 272 272 273 273 273
Wind_Speed
4 4 4 5 5 3 3 3 4 3 3 3 3 2 4 2 1 3 5 3 1 3 3 2 3 6 7 6 6 8 8 11 15 9 9 9 9 16 23 25 25 25 25 24 25 24 24 24 24 24 24 24 25 25 25 25 25 26 26 27 28 27 27 26 26 26 26 26 26 26 26 26 26 26
4 4 3 3 4 2 3 4 3 3 3 3 3 3 2 2 4 1 2 6 1 3 1 2 4 5 6 7 8 6 7 13 15 10 10 9 9 20 22 23 24 25 25 25 25 25 25 24 24 24 24 24 25 25 25 25 25 26 27 27 27 27 26 26 26 27 27 27 26 26 26 26 26 26
4 4 4 3 3 3 3 3 3 2 3 3 2 2 3 3 3 2 1 3 5 3 2 2 2 3 5 7 8 6 7 9 13 10 10 9 16 21 15 20 22 23 25 25 25 25 25 25 25 25 25 24 25 25 25 25 26 26 27 26 26 26 26 26 26 26 27 27 27 27 26 26 26 26
4 4 4 3 3 2 3 3 3 3 2 1 3 3 3 2 2 2 2 4 11 1 4 5 3 4 7 7 9 9 7 8 13 8 8 11 17 10 8 14 19 21 23 24 25 25 25 25 25 25 25 26 25 25 25 25 26 27 27 27 26 26 26 26 26 26 26 26 27 27 26 26 26 26
3 3 3 3 2 3 3 3 3 2 2 2 3 3 4 3 1 1 1 4 10 8 2 3 5 6 6 7 5 9 9 10 9 8 7 9 9 10 9 9 13 19 22 23 24 25 25 26 26 25 25 25 26 25 25 26 26 27 27 27 27 27 26 25 25 25 25 25 26 26 26 26 26 26
3 3 4 3 3 3 3 3 2 2 2 3 4 2 4 2 1 1 1 4 4 12 4 6 3 4 5 9 5 7 12 11 10 10 9 8 8 9 9 9 9 17 20 23 24 24 26 26 26 26 25 26 26 25 25 26 26 27 28 28 27 26 25 25 25 25 25 25 25 25 25 25 25 25
3 3 3 3 3 2 3 2 2 2 3 3 4 2 1 1 1 1 1 1 4 6 9 3 7 7 7 6 10 9 8 9 9 11 10 9 9 8 9 10 9 15 21 24 25 26 26 26 26 26 26 26 24 25 27 27 28 28 27 27 26 26 25 25 25 25 24 24 25 25 25 25 25 25
3 3 3 2 3 2 3 2 2 2 3 3 3 2 1 1 2 2 2 2 3 3 8 5 7 8 8 8 6 8 9 9 9 8 10 9 9 10 9 9 9 13 22 24 24 25 26 26 26 26 26 25 25 26 27 28 29 28 27 26 25 25 25 25 24 24 24 24 25 24 25 24 25 24
3 3 3 3 3 3 3 2 2 3 3 3 3 2 2 3 3 3 3 3 3 5 7 9 5 6 7 7 8 8 11 12 9 8 9 10 10 10 8 7 9 15 22 22 23 23 24 25 25 25 25 25 26 27 29 29 28 26 26 25 25 25 25 25 24 24 24 24 24 24 24 24 24 24
3 3 3 4 4 4 4 3 3 3 3 3 3 3 3 4 3 3 3 3 3 4 6 7 10 5 7 11 9 6 9 11 13 13 10 7 8 9 10 9 9 9 9 9 10 13 16 19 24 24 23 25 27 29 29 27 26 25 24 24 24 24 24 25 25 25 24 24 24 24 24 24 23 23
3 3 3 4 4 4 4 4 4 4 3 4 4 4 4 4 4 4 4 3 4 5 7 7 6 9 8 7 11 10 8 9 8 11 14 14 8 9 12 13 10 9 11 14 20 18 18 20 17 19 24 27 29 29 26 25 25 23 24 24 24 24 25 25 24 24 24 23 23 23 23 23 23 23
3 3 3 3 4 4 4 4 4 4 4 3 4 5 4 4 4 4 4 4 4 5 5 6 8 7 8 7 7 8 7 9 9 7 11 15 16 15 13 13 15 13 10 12 10 11 12 12 16 21 23 25 27 25 23 23 24 24 23 24 25 25 24 24 23 23 23 23 23 23 22 21 22 22
3 3 3 3 3 4 6 9 7 7 7 5 4 4 4 4 4 4 4 4 3 4 5 7 7 9 8 9 11 12 10 11 13 13 12 12 13 13 14 13 11 10 12 11 8 9 11 13 13 12 11 11 17 16 20 18 21 22 23 25 24 24 24 23 23 23 23 22 22 22 22 21 22 23
4 5 4 4 7 8 8 8 8 7 7 7 6 6 5 4 4 5 4 4 5 5 6 6 6 7 8 9 10 12 12 12 12 13 13 14 14 13 14 13 8 10 13 11 13 11 9 12 12 10 11 10 11 9 9 10 15 21 24 24 24 24 23 23 23 23 22 22 22 22 22 22 22 22
6 5 4 4 5 6 6 4 7 8 8 8 8 8 8 7 7 5 5 5 5 6 6 5 4 8 12 11 10 11 12 12 12 12 13 13 13 13 14 16 14 5 10 13 14 14 7 10 12 11 10 10 9 9 10 20 23 25 26 26 24 23 23 23 22 23 23 24 24 23 23 23 23 23
6 6 5 5 5 4 4 4 3 5 8 9 9 9 9 10 11 9 7 6 5 5 5 5 5 8 10 11 10 11 11 12 13 12 13 13 13 14 13 13 14 12 13 15 14 15 9 9 11 11 9 8 8 10 17 26 28 27 25 25 25 23 23 23 24 25 25 24 23 24 23 23 23 23
7 6 6 6 5 5 9 6 4 5 4 7 10 11 11 11 12 11 13 12 7 5 5 6 7 7 9 11 10 10 12 13 13 13 12 12 12 12 13 13 14 15 13 14 13 14 12 11 11 11 10 9 8 11 17 27 25 24 25 25 24 24 24 24 25 25 24 24 24 23 23 23 22 22
8 7 7 7 6 5 4 4 5 5 4 4 4 5 5 5 9 12 14 13 13 10 7 7 8 8 8 10 11 11 11 12 11 11 12 12 13 12 13 15 15 14 12 12 13 13 12 12 14 14 11 9 13 13 18 23 24 26 26 24 24 23 24 24 24 25 25 24 24 23 23 23 23 23
8 7 7 7 7 5 5 5 6 5 5 4 5 5 7 7 7 8 8 6 5 4 5 8 9 10 9 10 10 10 10 11 10 9 11 12 12 13 14 13 11 11 9 11 11 12 13 12 13 12 11 12 13 12 14 21 25 26 25 24 24 24 25 24 24 24 24 24 23 24 23 23 23 23
7 7 7 6 6 5 6 8 13 11 7 5 6 8 8 8 8 7 7 10 9 8 7 7 8 8 9 12 12 12 10 9 8 8 6 6 7 9 10 10 9 9 8 10 11 10 11 11 13 13 12 12 13 13 12 19 24 23 23 25 25 25 25 24 24 23 23 24 24 24 23 23 23 23
7 7 7 7 6 6 7 10 14 15 13 7 9 9 9 8 6 6 6 10 12 13 14 15 15 14 13 15 17 16 15 10 9 5 6 5 6 8 10 11 9 9 10 9 8 9 12 11 12 15 12 13 15 15 13 11 16 22 25 24 25 26 25 24 23 24 24 24 24 24 24 23 22 24
7 7 12 9 7 7 8 12 16 16 12 8 9 9 8 8 7 6 4 2 4 12 14 11 9 9 11 12 12 12 12 12 9 3 6 6 6 6 6 10 11 11 9 7 8 10 10 13 13 14 12 13 10 11 11 12 14 21 18 23 25 24 24 24 24 24 24 24 23 23 24 23 22 13
7 7 10 16 13 10 10 16 17 17 13 8 8 9 8 8 7 5 3 3 4 4 1 2 4 5 6 5 5 7 12 11 8 5 5 4 4 6 7 8 10 11 5 5 12 12 11 13 12 12 14 13 8 8 10 12 10 8 10 12 13 19 23 24 24 23 23 23 23 23 23 23 21 11
7 7 7 11 17 19 18 18 18 18 18 11 9 8 7 6 8 2 2 5 4 3 3 3 3 4 3 4 5 6 6 6 5 6 5 5 5 6 6 6 7 8 10 9 12 12 10 10 12 11 10 13 13 11 12 12 10 9 9 11 10 17 21 20 18 23 23 22 24 23 23 23 20 11
8 8 8 7 13 18 19 19 19 19 19 17 10 7 6 6 6 7 6 3 4 2 2 2 2 3 3 3 4 5 6 6 5 4 6 6 6 6 6 7 7 8 9 10 17 10 10 9 11 10 10 9 12 14 12 14 11 8 8 8 11 11 10 10 9 11 15 20 21 23 22 22 23 17
8 9 8 7 11 18 19 19 20 21 20 20 11 7 12 14 15 7 4 3 2 1 1 3 4 4 3 4 4 5 5 5 5 5 5 6 6 6 7 7 9 9 10 10 18 11 10 8 8 10 10 11 12 12 14 11 11 10 8 7 8 11 10 9 9 11 10 10 10 12 17 24 22 22
10 6 6 7 13 16 19 19 20 19 20 17 10 16 17 14 15 5 4 4 2 1 2 2 5 6 4 4 4 4 5 6 5 6 5 6 7 7 7 8 9 10 10 10 9 10 8 9 9 10 12 11 13 13 12 13 13 11 10 7 9 9 10 9 10 11 10 10 10 19 20 20 20 21
6 6 7 7 14 16 18 19 19 19 17 13 18 17 17 15 10 3 2 1 0 1 2 4 5 6 4 3 4 4 5 6 6 7 7 7 7 8 8 8 9 9 10 9 8 8 8 9 10 9 10 10 11 12 14 13 12 10 12 12 9 9 9 10 11 11 10 9 9 9 9 10 10 10
7 9 12 14 16 17 18 20 19 17 19 22 20 18 13 9 3 3 1 2 1 3 5 5 5 6 6 4 5 6 6 7 7 6 6 6 7 7 8 8 7 8 7 6 7 8 8 8 9 9 8 9 10 12 11 13 11 11 10 13 12 10 11 11 9 10 11 11 10 10 10 10 12 11
17 17 17 17 17 17 16 13 10 9 8 13 14 12 11 3 4 3 3 2 3 6 5 5 6 6 4 4 4 5 5 5 6 5 6 7 8 6 7 8 7 4 6 6 7 8 8 8 9 10 10 10 10 11 11 11 12 10 11 11 12 13 8 7 9 9 10 11 10 11 11 10 10 10
12 14 14 11 13 13 18 18 16 12 8 8 8 4 3 4 4 4 4 5 6 5 5 6 6 5 4 3 3 4 4 6 6 4 6 6 7 7 7 7 9 8 5 4 5 6 7 8 9 10 10 11 10 10 11 10 11 11 11 10 10 10 11 10 8 9 8 9 11 11 11 10 10 9
8 8 11 14 10 11 10 11 7 5 6 7 6 6 4 3 4 4 6 6 4 4 4 4 4 4 3 4 4 4 5 6 6 5 5 4 7 6 6 7 8 8 9 7 5 4 6 7 8 8 9 10 12 12 10 9 10 10 10 9 9 10 10 11 11 11 11 11 10 10 11 10 11 10
6 5 6 7 9 8 8 7 6 5 5 5 5 4 4 3 3 3 2 5 6 6 4 5 6 6 3 4 3 4 5 6 6 5 5 5 5 6 4 7 8 7 9 11 10 10 7 6 7 10 9 10 10 12 11 9 9 8 8 9 9 10 9 10 10 12 13 12 11 11 12 10 8 9
8 9 9 9 9 9 8 8 8 7 6 6 5 5 5 5 4 4 5 6 7 5 6 6 5 5 4 4 4 4 6 6 5 5 6 5 4 4 6 8 8 6 6 7 8 9 10 11 10 9 8 8 9 11 10 8 9 8 8 9 9 9 10 10 11 12 11 11 12 13 13 12 10 9
11 9 10 10 9 9 9 9 10 8 7 7 7 6 6 5 5 5 6 7 7 6 6 6 5 5 4 5 4 5 6 6 7 6 4 4 5 5 6 7 8 8 7 7 7 7 7 10 11 12 11 8 6 4 11 6 5 7 9 9 7 9 11 10 11 10 11 12 10 11 13 14 12 9
11 9 9 9 9 9 9 10 7 8 8 8 7 6 6 6 5 6 7 7 6 6 6 6 7 5 5 5 4 5 5 7 6 6 6 5 5 5 5 6 7 8 7 7 7 6 7 8 8 10 12 12 12 11 1 4 9 7 8 10 10 10 10 10 10 11 11 9 7 8 11 12 13 10
10 9 9 10 9 8 9 8 8 8 8 8 7 7 8 8 7 7 7 4 5 6 6 5 6 6 5 5 6 6 6 6 6 6 6 6 5 5 6 7 7 7 7 7 4 6 5 7 7 8 9 11 11 12 14 4 8 9 6 9 11 9 8 10 11 9 7 8 10 9 10 11 12 12
10 9 8 9 8 8 8 8 8 8 7 7 7 7 7 7 5 5 3 4 6 6 6 6 6 5 6 5 5 5 5 5 5 6 7 6 6 6 6 7 8 7 8 7 5 5 5 5 6 6 7 9 11 12 15 13 6 5 11 12 11 10 9 9 10 10 9 9 9 11 10 11 10 10
9 9 9 9 9 8 9 8 8 8 8 7 7 8 7 6 5 5 5 6 6 6 6 6 6 7 6 5 5 5 5 5 6 6 5 5 5 6 6 7 8 7 7 8 7 5 4 4 5 6 7 7 9 11 11 13 16 13 13 19 12 11 10 10 10 9 9 10 10 9 9 10 12 15
7 7 8 8 8 8 8 7 7 8 8 8 8 7 7 7 6 6 6 6 6 6 6 7 6 6 6 6 6 5 5 6 7 6 6 6 5 6 6 6 7 8 7 8 8 7 5 5 5 7 8 9 11 11 12 12 13 11 9 11 17 14 12 9 9 9 10 9 9 10 10 9 8 7
8 7 5 4 4 5 6 7 7 6 7 6 6 6 6 6 6 7 7 7 6 6 6 7 7 6 6 6 5 5 6 6 6 6 5 5 7 7 8 9 7 6 7 9 8 8 7 6 9 17 15 11 11 11 9 8 9 10 9 9 13 19 19 16 11 10 10 12 11 10 8 8 8 8
4 6 6 4 5 4 5 5 5 6 6 6 6 6 6 6 7 8 6 7 7 7 7 7 7 6 6 6 5 5 6 6 6 6 6 5 6 6 8 6 6 6 6 8 8 9 8 7 9 9 9 9 8 8 9 9 10 11 10 9 9 13 17 19 20 17 12 10 8 7 8 7 7 7
4 4 4 2 2 3 4 4 5 5 6 5 6 6 6 6 5 6 6 6 7 6 7 7 6 6 6 5 6 6 6 6 6 6 6 5 5 6 7 5 5 6 6 7 8 8 8 8 7 8 8 6 6 6 9 10 10 10 11 11 11 10 11 16 17 19 18 18 14 10 8 7 7 6
3 4 4 4 4 3 3 3 4 4 4 4 4 4 5 5 6 7 6 7 6 7 7 7 6 6 6 6 5 5 6 6 6 6 6 6 6 5 6 7 7 7 6 7 8 7 7 7 7 8 8 7 6 7 8 10 9 9 9 10 10 10 11 11 12 13 12 11 13 16 18 16 13 13
4 4 4 3 3 3 3 3 3 3 3 3 3 4 4 5 6 5 6 6 6 6 6 6 6 6 6 5 6 6 6 6 6 6 6 5 5 5 6 7 7 7 7 6 7 8 7 7 7 6 6 6 5 6 8 8 10 10 10 10 11 9 9 9 10 12 12 11 13 20 20 19 18 17
Wind_Direction
103 90 98 114 114 107 101 88 90 93 79 84 99 114 138 140 144 320 320 305 81 308 50 22 289 33 11 355 348 340 342 336 336 336 334 328 325 323 331 332 331 331 330 331 329 326 325 324 323 322 323 323 323 323 322 322 321 321 320 318 318 317 315 313 312 310 310 308 306 304 303 302 301 300
107 107 91 103 104 116 96 107 100 88 97 89 93 103 110 139 142 211 313 293 243 262 331 72 319 357 354 347 337 340 331 331 334 330 326 325 317 325 330 328 327 327 328 328 326 325 324 323 322 321 321 321 321 321 321 321 320 320 320 319 317 315 314 314 315 315 312 309 306 304 303 302 300 298
111 108 102 106 114 119 111 99 84 74 79 73 87 88 89 74 124 145 194 304 285 134 273 303 328 324 348 339 325 328 322 325 330 325 319 317 319 324 320 321 322 324 324 324 324 324 323 322 321 321 319 319 320 319 318 318 319 320 320 317 316 316 315 315 314 312 310 308 307 306 306 305 304 301
117 119 111 113 126 137 108 89 75 77 68 93 81 85 83 72 95 121 177 234 269 287 305 305 312 359 339 331 324 323 320 318 323 314 311 311 316 315 308 309 314 316 317 320 322 322 321 321 321 319 318 318 318 317 315 316 318 320 318 317 317 316 314 312 312 312 310 309 308 306 304 301 301 302
123 129 120 119 135 136 105 109 100 83 91 98 89 99 93 76 43 105 231 255 282 293 176 335 329 335 334 322 327 317 318 317 316 312 304 305 307 308 305 302 301 305 311 318 318 318 320 320 320 318 317 316 315 315 315 315 317 317 316 316 315 314 313 312 312 312 311 309 306 304 301 299 299 300
142 134 121 117 122 129 123 129 119 143 114 114 95 86 102 97 99 301 162 265 253 292 317 321 321 316 334 313 323 321 319 314 310 309 310 304 298 302 302 301 296 298 306 314 315 317 318 318 317 317 314 314 315 314 314 316 316 315 316 315 314 312 312 312 312 311 309 307 306 304 301 299 298 298
147 122 129 143 133 137 116 149 159 145 125 130 118 122 122 130 237 217 239 229 279 288 302 338 324 328 322 314 314 313 300 295 298 303 306 307 304 295 295 295 293 297 302 310 314 316 316 314 314 313 313 313 311 313 316 316 316 316 315 314 313 312 312 312 312 310 308 308 308 307 304 301 298 298
151 146 133 160 153 152 141 182 157 145 141 133 135 139 185 167 207 222 204 256 255 295 299 318 326 314 316 310 298 296 295 293 301 300 298 297 295 294 291 288 291 291 303 311 311 313 312 312 311 312 312 310 311 313 315 317 316 315 314 314 314 313 312 312 310 309 308 308 309 309 307 305 302 299
152 161 167 188 170 167 155 197 169 165 149 157 150 166 203 198 215 209 218 224 245 270 282 296 292 294 293 289 294 303 310 311 304 298 299 303 300 297 286 282 287 292 303 304 304 304 307 309 310 310 309 310 311 313 315 316 315 314 314 315 314 313 312 311 309 308 308 308 308 307 306 305 304 302
173 172 187 193 188 177 172 207 196 173 173 172 180 195 215 210 207 210 226 224 231 264 274 286 303 296 303 308 301 301 304 309 312 312 305 297 303 309 310 305 303 304 298 303 298 298 299 300 307 309 309 308 311 313 314 313 313 314 314 313 313 311 310 309 309 309 309 308 308 307 306 305 303 302
180 187 193 202 196 195 193 190 192 185 190 179 208 210 212 214 196 220 217 215 242 270 284 282 278 295 296 291 298 313 302 291 293 304 315 317 318 312 315 313 307 303 300 299 303 304 307 310 310 309 309 309 309 309 310 311 312 312 312 311 309 308 309 309 309 309 309 309 308 306 306 306 305 303
194 195 203 201 207 199 207 193 205 179 189 199 207 224 198 209 204 219 230 243 252 262 273 282 292 280 282 291 272 291 301 306 308 317 318 314 320 321 318 314 312 311 301 304 302 307 312 312 311 308 305 303 303 307 309 308 309 311 309 307 307 310 311 309 309 310 311 311 310 308 306 304 305 306
202 210 204 212 215 215 219 218 205 193 195 180 206 229 189 209 213 226 234 233 246 259 270 281 284 292 295 302 316 319 324 323 320 321 320 310 313 315 313 310 307 303 312 313 321 325 327 314 307 305 300 296 299 300 301 305 304 305 308 311 312 312 312 312 312 312 311 311 309 306 306 310 311 309
221 218 220 222 226 231 229 227 220 222 241 238 197 193 187 209 213 221 221 239 240 252 272 280 289 295 305 315 314 312 312 316 317 317 318 313 317 316 311 304 304 324 316 325 314 308 315 305 302 299 294 293 297 295 299 295 305 312 315 314 313 313 314 314 314 313 313 312 311 311 312 312 311 307
219 229 228 225 238 235 233 226 227 236 241 243 247 248 241 217 194 201 232 236 241 253 265 275 292 307 305 305 310 308 314 316 318 315 315 316 320 322 321 315 313 335 332 315 308 303 304 295 294 294 290 292 291 299 296 309 319 318 315 314 315 315 315 316 316 316 316 315 314 312 310 310 309 308
215 221 228 231 219 220 213 207 225 242 243 244 251 254 253 254 255 249 227 241 254 269 288 295 294 298 295 303 310 311 315 315 314 315 318 316 318 315 312 306 304 318 324 311 306 301 306 289 283 284 287 292 295 302 316 321 317 313 316 318 318 318 319 319 319 319 318 316 315 313 311 309 308 308
217 215 217 226 224 213 221 215 200 200 225 252 259 257 256 257 257 258 265 270 274 278 284 288 286 282 299 304 304 307 308 313 313 319 316 316 313 308 301 300 304 311 316 306 300 297 303 303 300 300 308 309 317 321 321 315 313 317 318 318 319 319 320 320 319 318 316 316 315 313 311 309 309 309
216 214 212 214 224 216 210 210 210 210 211 223 251 270 274 263 265 264 265 267 270 280 283 281 282 294 297 293 299 304 317 320 316 316 313 314 308 306 300 303 301 301 306 303 310 306 317 321 312 308 316 333 320 310 310 315 319 317 317 317 317 317 318 318 317 316 316 316 315 315 315 315 313 312
220 218 216 214 219 216 215 212 207 208 216 213 234 249 253 251 243 244 244 245 246 249 264 276 284 286 287 287 299 317 321 313 310 308 305 312 306 298 297 291 287 294 304 318 325 306 307 310 313 314 319 317 303 297 308 316 316 315 314 315 316 317 317 317 317 317 316 316 318 318 317 315 314 313
224 219 216 217 222 220 226 226 231 224 204 209 227 239 245 244 240 230 218 238 259 270 277 274 272 276 279 297 311 313 314 316 309 308 316 301 289 299 301 302 316 311 328 338 318 307 313 323 311 308 308 304 306 311 309 311 313 313 314 315 316 316 316 316 317 317 317 318 318 317 316 316 315 315
223 220 213 217 218 226 234 235 239 237 227 212 222 233 240 231 221 233 230 258 270 279 282 281 281 286 300 312 311 310 313 311 316 326 311 297 314 313 312 311 319 315 328 320 321 327 306 309 312 311 315 318 311 306 304 303 309 316 315 314 315 314 315 315 315 316 319 319 318 318 318 317 317 317
225 222 221 214 219 227 235 238 239 235 231 234 235 237 235 228 234 242 221 190 246 273 278 280 295 312 316 315 314 311 308 312 323 311 291 306 325 306 306 306 314 310 313 310 340 314 305 317 321 316 316 311 301 303 302 308 311 311 309 311 311 313 313 314 316 317 318 318 318 318 318 318 319 319
219 231 230 230 229 228 233 237 238 235 231 232 234 239 235 242 248 245 205 228 251 242 187 300 325 318 322 316 296 287 300 310 315 304 296 304 296 293 296 300 309 312 305 333 334 318 318 324 322 328 319 312 300 292 301 301 294 302 305 302 305 311 317 318 317 317 317 317 317 317 318 319 321 317
228 222 226 232 234 235 235 233 234 235 233 232 236 228 229 245 263 232 207 242 228 181 204 253 269 274 285 281 281 274 273 282 283 294 300 294 284 279 285 289 289 284 295 316 329 320 311 316 313 320 312 314 316 322 309 304 309 302 301 306 310 319 320 317 315 316 316 316 316 316 317 319 318 312
219 222 221 215 226 234 238 237 234 235 237 239 236 216 230 243 247 249 234 222 163 157 205 249 285 281 277 271 266 269 269 270 268 269 288 283 284 288 290 294 290 282 291 306 323 321 310 312 304 312 306 297 292 306 311 305 303 304 304 321 317 312 313 314 311 309 311 311 312 314 313 314 316 317
221 220 215 212 220 230 237 240 239 237 238 241 239 233 247 257 262 277 123 143 135 163 335 344 304 292 283 270 270 270 271 269 270 267 265 275 278 276 275 285 295 297 300 310 318 314 307 303 311 311 305 307 304 306 309 306 300 309 319 311 305 309 308 306 307 307 309 307 306 305 311 316 316 314
221 209 213 215 220 228 235 240 240 239 239 242 240 245 252 254 267 272 120 139 148 76 327 314 293 284 268 272 279 286 283 280 283 283 280 275 275 273 269 272 278 283 291 301 301 297 294 292 301 302 303 302 303 308 304 309 312 318 306 311 308 301 303 301 304 307 305 304 300 304 309 306 308 311
213 211 212 206 218 230 236 239 240 240 240 236 239 242 247 254 265 99 175 107 86 51 309 282 276 275 263 249 274 270 274 282 292 294 293 287 279 277 278 276 278 277 285 288 288 289 288 290 293 288 292 301 301 304 306 301 298 301 307 308 302 298 304 306 303 302 300 301 302 303 306 309 309 308
213 217 217 218 225 231 236 237 238 240 239 235 237 240 233 240 94 137 151 216 134 273 260 254 258 264 262 246 256 269 285 290 293 293 291 287 275 268 269 270 270 274 278 282 284 285 287 289 290 291 291 295 294 293 295 296 301 301 305 308 309 311 310 302 298 306 312 313 313 316 313 313 308 307
215 220 224 225 230 233 232 233 233 236 236 239 233 217 222 115 155 145 178 201 215 241 246 246 250 257 272 275 270 277 286 290 286 290 293 303 302 300 300 302 289 257 250 264 270 279 284 286 291 298 295 291 290 291 290 296 296 294 299 300 297 299 292 304 315 315 318 317 315 310 307 300 296 298
212 214 216 219 225 226 227 230 233 231 214 207 215 191 131 147 162 182 187 203 215 229 235 247 249 256 262 283 301 294 290 283 278 273 280 287 289 302 302 303 302 314 292 262 263 267 281 288 292 296 296 295 289 281 285 284 288 294 295 295 300 304 318 320 312 310 307 308 307 305 302 301 297 289
206 203 213 219 223 225 228 230 224 203 180 189 190 201 185 181 189 197 210 220 204 224 218 240 261 280 280 290 280 287 283 275 278 276 277 276 289 294 306 310 306 310 310 311 297 271 279 282 290 291 287 288 290 291 289 284 280 285 287 292 301 306 309 309 311 311 311 308 306 305 305 305 303 304
219 204 205 207 215 210 209 208 207 192 186 204 205 209 209 205 192 209 203 228 236 232 223 243 245 258 272 281 282 278 283 276 276 276 277 272 270 292 288 284 291 306 316 317 322 319 312 298 288 290 286 282 276 276 283 295 289 284 289 302 310 306 308 310 310 311 314 314 310 309 306 304 304 303
216 219 216 218 215 217 209 211 210 204 203 207 211 222 218 210 200 210 225 228 237 226 225 233 235 245 241 264 275 280 275 285 278 273 281 287 288 293 298 298 297 293 293 298 307 313 318 318 314 303 286 268 256 265 260 262 279 286 298 306 311 312 312 312 310 308 310 311 314 314 315 315 316 310
220 215 219 224 218 220 218 222 221 212 210 216 213 216 206 210 214 222 217 231 222 224 229 233 228 232 227 248 262 271 277 282 291 292 276 264 277 272 282 289 296 303 306 307 306 312 317 318 322 319 318 315 301 268 270 241 235 303 309 310 314 313 311 310 308 310 312 311 314 317 318 311 311 320
226 218 219 224 221 217 220 225 218 217 218 218 214 213 211 223 204 214 228 224 206 219 222 231 237 234 232 234 246 255 266 275 282 288 295 290 283 281 271 268 279 290 292 294 302 311 318 315 322 323 326 327 329 325 247 325 313 316 315 313 315 312 305 307 313 313 307 309 322 321 309 307 308 317
223 223 225 226 223 213 221 220 214 216 213 213 214 211 214 222 211 208 224 213 203 212 216 218 234 237 239 235 241 250 261 268 275 283 284 284 279 279 289 288 286 288 292 289 291 304 312 313 316 320 320 323 324 315 306 328 319 319 308 315 310 305 313 318 314 300 308 324 315 310 302 303 305 306
224 220 225 231 226 220 218 219 213 212 210 209 212 212 218 222 219 215 173 186 214 214 223 226 235 234 235 228 235 252 255 254 254 268 273 282 288 287 283 291 295 297 293 295 302 305 298 294 304 315 318 315 311 313 314 317 308 294 320 316 308 312 317 311 307 312 318 318 305 304 306 301 299 299
223 223 220 222 222 217 218 216 204 212 206 204 206 212 214 215 212 209 195 210 210 217 221 227 233 233 234 235 229 232 247 262 267 264 269 268 267 274 286 291 294 291 295 301 308 301 300 292 295 308 311 303 300 301 300 304 305 309 312 313 315 315 317 312 306 314 315 311 309 304 292 289 289 296
227 226 229 223 221 214 217 205 204 210 205 204 206 208 204 209 206 207 210 212 214 217 214 224 228 229 230 228 233 234 244 245 251 257 260 268 270 271 276 281 283 294 300 301 306 306 310 299 300 308 306 298 290 284 282 280 281 286 293 302 318 325 316 314 318 320 311 307 306 301 302 314 319 320
246 244 241 211 211 199 203 204 204 198 207 202 202 204 204 207 208 209 207 211 202 210 215 224 225 225 231 227 224 216 241 256 250 252 255 262 272 277 285 293 289 290 296 297 297 301 301 299 301 309 305 290 284 279 281 286 297 302 305 307 318 324 323 324 320 315 305 305 300 294 307 316 311 316
256 251 254 220 218 215 200 204 192 198 204 200 198 200 206 207 217 216 213 216 205 209 219 225 224 221 228 222 226 221 230 243 253 260 257 259 272 280 283 279 281 291 291 288 297 296 296 301 305 303 288 290 293 311 307 304 301 305 308 313 312 317 321 322 322 318 311 302 302 317 325 316 325 319
326 317 300 298 256 228 211 215 204 202 209 197 206 200 203 212 210 215 210 209 211 211 216 225 222 218 226 226 225 218 224 244 245 254 257 260 259 271 276 278 276 281 278 282 287 289 297 305 306 303 296 289 297 304 300 302 300 303 310 314 315 320 316 320 321 323 323 322 327 338 334 324 316 320
324 324 319 323 317 297 277 256 247 235 227 221 218 207 209 208 216 214 214 219 212 219 217 223 225 223 229 228 220 223 226 236 244 248 255 253 254 258 275 283 284 281 282 286 289 293 302 303 299 297 301 301 306 307 305 310 309 309 305 305 309 319 320 323 322 325 326 324 330 342 343 340 336 328
316 312 316 314 289 280 272 257 258 252 241 239 222 219 219 217 227 221 218 219 222 223 221 221 223 227 225 222 209 230 236 236 238 242 246 255 266 274 274 275 278 280 283 284 295 300 304 303 299 292 287 292 294 293 299 307 307 307 305 309 312 318 319 326 331 331 331 325 327 339 345 346 351 351